EW8029 Weather Reports


time (UTC)temp
F
wind
direction
speed
knots
gust
knots
rain 1hr
in
rain 24hr
in
rain mn
in
humidity
%
barometer
mb
20260505184203 81 199 8.7 20.9 0.00 0.00 0.00 71 1003.5
20260505183603 81 203 7.8 16.5 0.00 0.00 0.00 71 1003.6
20260505183003 81 210 9.6 20.9 0.00 0.00 0.00 71 1003.7
20260505182403 81 208 8.7 20.9 0.00 0.00 0.00 70 1003.8
20260505181824 80 217 10.4 21.7 0.00 0.00 0.00 71 1003.8
20260505181203 80 217 11.3 21.7 0.00 0.00 0.00 70 1003.9
20260505180624 80 208 10.4 20.9 0.00 0.00 0.00 71 1003.9
20260505180003 79 206 11.3 25.2 0.00 0.00 0.00 72 1004.1
20260505175403 79 205 11.3 21.7 0.00 0.00 0.00 72 1004.0
20260505174824 79 202 10.4 26.9 0.00 0.00 0.00 72 1004.2
20260505174203 79 207 9.6 20.9 0.00 0.00 0.00 72 1004.3
20260505173645 79 217 9.6 22.6 0.00 0.00 0.00 73 1004.4
20260505173045 79 216 12.2 22.6 0.00 0.00 0.00 72 1004.4
20260505172445 79 209 11.3 22.6 0.00 0.00 0.00 72 1004.2
20260505171803 79 201 10.4 22.6 0.00 0.00 0.00 73 1004.1
20260505171203 78 205 11.3 22.6 0.00 0.00 0.00 73 1004.1
20260505170624 78 213 11.3 19.1 0.00 0.00 0.00 74 1004.1
20260505170024 78 213 11.3 24.3 0.00 0.00 0.00 75 1004.1
20260505165403 78 214 11.3 24.3 0.00 0.00 0.00 75 1004.1
20260505164803 77 213 12.2 24.3 0.00 0.00 0.00 76 1004.1
20260505164306 77 211 12.2 24.3 0.00 0.00 0.00 76 1004.1
20260505163603 76 208 11.3 24.3 0.00 0.00 0.00 77 1004.4
20260505163003 76 211 13.0 25.2 0.00 0.00 0.00 77 1004.5
20260505162403 76 211 12.2 25.2 0.00 0.00 0.00 77 1004.6
20260505161803 76 220 11.3 20.9 0.00 0.00 0.00 78 1004.5
20260505161203 76 213 10.4 28.7 0.00 0.00 0.00 78 1004.5
20260505160603 76 211 13.0 28.7 0.00 0.00 0.00 78 1004.1
20260505153003 74 211 13.0 26.9 0.00 0.00 0.00 80 1004.5
20260505152445 74 210 12.2 25.2 0.00 0.00 0.00 80 1004.3
20260505151803 74 211 10.4 25.2 0.00 0.00 0.00 80 1004.4
20260505151203 74 209 10.4 22.6 0.00 0.00 0.00 81 1004.4
20260505150603 74 210 10.4 19.1 0.00 0.00 0.00 81 1004.4
20260505140603 72 195 7.8 15.6 0.00 0.00 0.00 84 1004.2
20260505124803 71 203 8.7 18.2 0.00 0.00 0.00 85 1003.6
20260505124203 71 202 8.7 17.4 0.00 0.00 0.00 85 1003.5
20260505123603 71 202 7.8 17.4 0.00 0.00 0.00 85 1003.5
20260505123003 71 201 7.8 20.9 0.00 0.00 0.00 85 1003.6
20260505122403 71 203 7.0 13.9 0.00 0.00 0.00 85 1003.4
20260505121803 71 199 7.0 13.0 0.00 0.00 0.00 85 1003.4
20260505121224 71 186 6.1 12.2 0.00 0.00 0.00 85 1003.2
20260505120603 71 194 6.1 17.4 0.00 0.00 0.00 85 1003.2
20260505120003 71 203 6.1 17.4 0.00 0.00 0.00 85 1003.3
20260505115445 71 205 7.0 15.6 0.00 0.00 0.00 85 1003.2
20260505114824 71 206 7.0 15.6 0.00 0.00 0.00 85 1003.2
20260505114306 71 206 7.0 13.9 0.00 0.00 0.00 85 1003.0
20260505113603 71 197 7.0 13.9 0.00 0.00 0.00 85 1002.9
20260505113045 71 200 7.0 15.6 0.00 0.00 0.00 85 1002.9
20260505112403 71 207 7.8 17.4 0.00 0.00 0.00 85 1003.0
20260505111803 71 203 7.8 18.2 0.00 0.00 0.00 85 1003.1
20260505111203 71 197 7.8 18.2 0.00 0.00 0.00 85 1002.9
20260505110603 71 196 7.0 20.9 0.00 0.00 0.00 85 1002.8
20260505101803 70 195 7.0 13.9 0.00 0.00 0.00 85 1003.1
20260505101203 70 193 7.0 13.9 0.00 0.00 0.00 85 1003.1
20260505100624 70 194 7.0 13.9 0.00 0.00 0.00 85 1003.2
20260505100003 70 194 7.0 14.8 0.00 0.00 0.00 85 1003.3
20260505095403 70 199 7.0 13.0 0.00 0.00 0.00 85 1003.3
20260505094845 70 199 7.0 14.8 0.00 0.00 0.00 85 1003.5
20260505094224 70 196 7.0 14.8 0.00 0.00 0.00 85 1003.3
20260505093603 70 196 7.8 17.4 0.00 0.00 0.00 85 1003.3
20260505093003 70 191 7.0 15.6 0.00 0.00 0.00 85 1003.3
20260505092506 70 195 7.0 16.5 0.00 0.00 0.00 85 1003.4
20260505091803 70 200 7.8 17.4 0.00 0.00 0.00 85 1003.5
20260505091203 70 191 7.0 17.4 0.00 0.00 0.00 85 1003.4
20260505090603 70 193 7.0 16.5 0.00 0.00 0.00 85 1003.5
20260505090003 70 187 7.0 18.2 0.00 0.00 0.00 85 1003.4
20260505085424 70 186 7.8 15.6 0.00 0.00 0.00 85 1003.4
20260505084824 70 186 7.0 15.6 0.00 0.00 0.00 85 1003.4
20260505084203 70 183 7.8 17.4 0.00 0.00 0.00 85 1003.3
20260505083603 70 184 7.8 15.6 0.00 0.00 0.00 85 1003.4
20260505083024 70 181 7.8 16.5 0.00 0.00 0.00 85 1003.5
20260505082445 70 179 7.8 14.8 0.00 0.00 0.00 85 1003.6
20260505081803 70 179 7.8 19.1 0.00 0.00 0.00 85 1003.6
20260505081224 70 180 8.7 19.1 0.00 0.00 0.00 85 1003.8
20260505080603 70 181 7.8 15.6 0.00 0.00 0.00 85 1003.8
20260505080003 70 185 7.8 18.2 0.00 0.00 0.00 85 1003.9
20260505075424 70 191 7.8 18.2 0.00 0.00 0.00 85 1004.1
20260505074845 70 191 7.8 15.6 0.00 0.00 0.00 85 1004.2
20260505074245 70 184 7.8 14.8 0.00 0.00 0.00 85 1004.1
20260505073645 70 181 7.8 15.6 0.00 0.00 0.00 85 1004.1
20260505073003 70 181 8.7 17.4 0.00 0.00 0.00 84 1004.1
20260505072403 70 182 9.6 17.4 0.00 0.00 0.00 84 1004.1
20260505071845 70 182 9.6 17.4 0.00 0.00 0.00 84 1004.2
20260505071203 70 184 8.7 14.8 0.00 0.00 0.00 84 1004.4
20260505070603 70 186 8.7 14.8 0.00 0.00 0.00 84 1004.5
20260505070024 70 180 8.7 16.5 0.00 0.00 0.00 84 1004.5
20260505065445 71 176 8.7 15.6 0.00 0.00 0.00 84 1004.6
20260505064803 71 178 8.7 15.6 0.00 0.00 0.00 84 1004.8
20260505064203 70 177 7.8 15.6 0.00 0.00 0.00 84 1005.0
20260505063603 70 180 7.0 12.2 0.00 0.00 0.00 84 1005.0
20260505063003 70 183 7.0 18.2 0.00 0.00 0.00 84 1005.1
20260505062403 70 183 7.0 17.4 0.00 0.00 0.00 84 1005.2
20260505061803 70 184 7.0 17.4 0.00 0.00 0.00 84 1005.3
20260505061203 70 178 7.0 13.0 0.00 0.00 0.00 84 1005.2
20260505060603 70 177 7.0 13.0 0.00 0.00 0.00 84 1005.1
20260505060003 70 173 7.0 13.9 0.00 0.00 0.00 83 1005.1
20260505055403 71 177 7.8 13.9 0.00 0.00 0.00 83 1005.2
20260505054824 71 177 7.8 13.9 0.00 0.00 0.00 83 1005.0
20260505054306 71 172 7.0 13.9 0.00 0.00 0.00 82 1005.0
20260505053624 71 173 6.1 13.0 0.00 0.00 0.00 82 1005.0
20260505053003 72 177 6.1 14.8 0.00 0.00 0.00 81 1005.1
20260505052445 72 179 7.0 14.8 0.00 0.00 0.00 81 1005.2
20260505051824 72 186 7.0 13.9 0.00 0.00 0.00 80 1005.3
20260505051224 72 192 7.8 17.4 0.00 0.00 0.00 80 1005.4
20260505050603 72 190 8.7 17.4 0.00 0.00 0.00 80 1005.3
20260505041224 73 181 6.1 13.9 0.00 0.00 0.00 78 1005.3
20260505040624 73 176 6.1 12.2 0.00 0.00 0.00 78 1005.2
20260505040004 73 170 5.2 11.3 0.00 0.00 0.00 78 1005.1
20260505035424 73 170 5.2 11.3 0.00 0.00 0.00 78 1005.1
20260505034803 73 168 5.2 11.3 0.00 0.00 0.00 77 1005.1
20260505034224 73 167 6.1 13.0 0.00 0.00 0.00 77 1005.0
20260505033624 73 168 6.1 13.0 0.00 0.00 0.00 77 1005.1
20260505033003 73 169 5.2 11.3 0.00 0.00 0.00 76 1005.3
20260505032403 74 171 6.1 12.2 0.00 0.00 0.00 75 1005.3
20260505031803 74 174 6.1 12.2 0.00 0.00 0.00 75 1005.1
20260505031245 74 173 6.1 12.2 0.00 0.00 0.00 74 1005.1
20260505030624 74 173 6.1 12.2 0.00 0.00 0.00 74 1005.2
20260505030003 74 171 6.1 14.8 0.00 0.00 0.00 74 1005.0
20260505025403 74 170 5.2 14.8 0.00 0.00 0.00 73 1005.0
20260505024803 74 171 5.2 12.2 0.00 0.00 0.00 73 1004.9
20260505024224 75 171 5.2 12.2 0.00 0.00 0.00 72 1004.9
20260505023624 75 172 6.1 12.2 0.00 0.00 0.00 72 1004.9
20260505023106 75 171 6.1 13.0 0.00 0.00 0.00 71 1004.8
20260505022445 75 170 6.1 13.0 0.00 0.00 0.00 71 1004.7
20260505021803 75 167 6.1 15.6 0.00 0.00 0.00 71 1004.7
20260505021306 75 164 6.1 13.0 0.00 0.00 0.00 71 1004.7
20260505020624 75 165 6.1 14.8 0.00 0.00 0.00 71 1004.7
20260505020003 75 167 5.2 12.2 0.00 0.00 0.00 71 1004.7
20260505015403 75 164 7.0 13.0 0.00 0.00 0.00 71 1004.6
20260505014824 75 163 7.8 13.9 0.00 0.00 0.00 71 1004.4
20260505014203 75 164 6.1 13.0 0.00 0.00 0.00 70 1004.4
20260505013624 76 163 6.1 13.0 0.00 0.00 0.00 70 1004.5
20260505013045 76 164 7.0 13.9 0.00 0.00 0.00 69 1004.4
20260505012403 76 167 6.1 13.9 0.00 0.00 0.00 68 1004.4
20260505011824 76 166 6.1 16.5 0.00 0.00 0.00 68 1004.3
20260505011203 77 172 6.1 16.5 0.00 0.00 0.00 67 1004.3
20260505010624 77 172 7.0 14.8 0.00 0.00 0.00 67 1004.4
20260505010045 77 172 7.0 14.8 0.00 0.00 0.00 66 1004.4
20260505005445 77 178 6.1 12.2 0.00 0.00 0.00 66 1004.4
20260505004824 77 181 7.0 15.6 0.00 0.00 0.00 65 1004.5
20260505004224 78 177 7.8 15.6 0.00 0.00 0.00 65 1004.6
20260505003603 78 177 7.8 15.6 0.00 0.00 0.00 65 1004.6
20260505003003 78 173 7.0 13.9 0.00 0.00 0.00 66 1004.5
20260505002445 78 168 7.8 13.9 0.00 0.00 0.00 67 1004.6
20260505001803 77 162 8.7 13.9 0.00 0.00 0.00 67 1004.6
20260505001203 78 159 8.7 18.2 0.00 0.00 0.00 67 1004.7
20260505000624 78 164 7.8 18.2 0.00 0.00 0.00 66 1004.7
20260505000024 78 163 7.8 17.4 0.00 0.00 0.00 65 1004.8
20260504235424 78 165 8.7 20.0 0.00 0.00 0.00 65 1004.8
20260504234845 78 170 9.6 20.9 0.00 0.00 0.00 64 1004.8
20260504234224 78 175 8.7 19.1 0.00 0.00 0.00 64 1004.8
20260504233706 78 172 9.6 20.9 0.00 0.00 0.00 64 1004.9
20260504233045 78 174 9.6 20.9 0.00 0.00 0.00 63 1005.0
20260504232445 78 177 9.6 17.4 0.00 0.00 0.00 63 1005.0
20260504231824 79 179 8.7 19.1 0.00 0.00 0.00 63 1005.2
20260504231203 78 177 8.7 17.4 0.00 0.00 0.00 63 1005.3
20260504230603 78 176 9.6 20.9 0.00 0.00 0.00 63 1005.3
20260504230106 78 173 10.4 19.1 0.00 0.00 0.00 63 1005.4
20260504225403 78 174 8.7 19.1 0.00 0.00 0.00 63 1005.6
20260504224803 78 167 9.6 21.7 0.00 0.00 0.00 64 1005.6
20260504224224 78 172 9.6 21.7 0.00 0.00 0.00 62 1005.6
20260504223603 78 186 8.7 22.6 0.00 0.00 0.00 63 1005.5
20260504223003 78 188 8.7 22.6 0.00 0.00 0.00 62 1005.5
20260504222445 79 191 8.7 19.1 0.00 0.00 0.00 62 1005.6
20260504221906 79 182 8.7 19.1 0.00 0.00 0.00 62 1005.6
20260504221203 78 189 8.7 20.0 0.00 0.00 0.00 62 1005.8
20260504220647 78 188 10.4 20.9 0.00 0.00 0.00 61 1005.9
20260504220024 78 182 9.6 20.9 0.00 0.00 0.00 61 1006.0
20260504215403 78 180 9.6 18.2 0.00 0.00 0.00 62 1006.0
20260504214803 78 179 9.6 18.2 0.00 0.00 0.00 62 1006.0
20260504214306 78 189 10.4 20.9 0.00 0.00 0.00 62 1006.1
20260504213603 78 185 11.3 23.5 0.00 0.00 0.00 60 1006.4
20260504213003 79 188 12.2 26.1 0.00 0.00 0.00 61 1006.2
20260504212403 78 184 10.4 23.5 0.00 0.00 0.00 62 1006.4
20260504211824 78 186 10.4 23.5 0.00 0.00 0.00 62 1006.5
20260504211203 78 182 9.6 23.5 0.00 0.00 0.00 63 1006.6
20260504210624 78 180 9.6 24.3 0.00 0.00 0.00 62 1006.8
20260504210024 78 196 10.4 24.3 0.00 0.00 0.00 62 1006.9
20260504205424 78 200 10.4 24.3 0.00 0.00 0.00 61 1007.1
20260504204824 78 187 11.3 24.3 0.00 0.00 0.00 62 1007.2
20260504204203 78 176 10.4 21.7 0.00 0.00 0.00 62 1007.2
20260504203624 78 181 9.6 21.7 0.00 0.00 0.00 63 1007.3
20260504203003 78 176 9.6 23.5 0.00 0.00 0.00 62 1007.5
20260504202445 78 180 9.6 23.5 0.00 0.00 0.00 62 1007.6
20260504201824 78 191 9.6 22.6 0.00 0.00 0.00 61 1007.7
20260504201203 78 192 10.4 23.5 0.00 0.00 0.00 61 1007.9
20260504200603 78 193 10.4 23.5 0.00 0.00 0.00 61 1007.9
20260504200003 78 184 10.4 22.6 0.00 0.00 0.00 61 1008.0
20260504195424 77 174 10.4 21.7 0.00 0.00 0.00 61 1008.3
20260504194824 77 183 10.4 19.1 0.00 0.00 0.00 62 1008.3
20260504194224 77 180 10.4 20.0 0.00 0.00 0.00 62 1008.4
20260504193624 77 168 10.4 20.9 0.00 0.00 0.00 63 1008.3
20260504193003 77 168 10.4 20.9 0.00 0.00 0.00 63 1008.3
20260504192445 77 178 8.7 20.9 0.00 0.00 0.00 62 1008.5
20260504191824 78 193 8.7 20.0 0.00 0.00 0.00 62 1008.5
20260504191306 77 193 9.6 25.2 0.00 0.00 0.00 62 1008.8
20260504190603 77 177 8.7 17.4 0.00 0.00 0.00 62 1008.8
20260504190024 76 181 9.6 21.7 0.00 0.00 0.00 62 1008.9
20260504185403 76 203 11.3 21.7 0.00 0.00 0.00 64 1009.0
20260504184803 76 199 12.2 21.7 0.00 0.00 0.00 62 1009.2